Location: Capelle
(50.3413°N, 1.9974°E)
Time: 19:57:25
(UTC+00:00)

Cosmos 1933 Rocket - Pass Details

Date: 12 January 2026
Orbit: 599 x 624 km, 82.5° (Epoch: 15 February)

Event Time Altitude Azimuth Distance (km) Brightness Sun altitude
Rises 17:46:19 0° 355° (N) 2,912 6.9 -14.3°
Reaches altitude 10° 17:48:43 10° 5° (N) 1,998 6.0 -14.6°
Maximum altitude 17:52:49 36° 72° (ENE) 985 4.0 -15.3°
Drops below altitude 10° 17:56:51 10° 140° (SE) 1,969 5.9 -15.9°
Sets 17:59:12 0° 149° (SSE) 2,865 6.8 -16.2°
